| time (UTC) | temp F | wind direction | speed knots | gust knots | rain 1hr in | rain 24hr in | rain mn in | humidity % | barometer mb |
| 20260502203032 | 49 | 245 | 5.2 | 13.0 | 0.00 | 0.04 | 0.01 | 68 | 1013.8 |
| 20260502201525 | 51 | 245 | 7.0 | 15.6 | 0.00 | 0.04 | 0.01 | 66 | 1013.6 |
| 20260502200023 | 51 | 245 | 6.1 | 12.2 | 0.00 | 0.04 | 0.01 | 66 | 1013.7 |
| 20260502194527 | 52 | 252 | 6.1 | 14.8 | 0.00 | 0.07 | 0.01 | 62 | 1013.5 |
| 20260502193021 | 51 | 213 | 8.7 | 13.9 | 0.00 | 0.07 | 0.01 | 63 | 1013.7 |
| 20260502191520 | 51 | 240 | 8.7 | 13.9 | 0.00 | 0.07 | 0.01 | 67 | 1013.4 |
| 20260502190021 | 51 | 238 | 7.8 | 12.2 | 0.00 | 0.07 | 0.01 | 72 | 1013.0 |
| 20260502184523 | 50 | 184 | 4.3 | 10.4 | 0.00 | 0.18 | 0.01 | 73 | 1012.9 |
| 20260502183020 | 48 | 169 | 5.2 | 11.3 | 0.00 | 0.18 | 0.01 | 77 | 1012.9 |
| 20260502181519 | 54 | 164 | 0.9 | 8.7 | 0.00 | 0.18 | 0.01 | 66 | 1012.9 |
| 20260502163026 | 53 | 224 | 4.3 | 9.6 | 0.00 | 0.35 | 0.01 | 73 | 1013.8 |
| 20260502161517 | 51 | 221 | 4.3 | 8.7 | 0.00 | 0.35 | 0.01 | 80 | 1013.7 |
| 20260502151502 | 51 | 154 | 0.9 | 6.1 | 0.00 | 0.36 | 0.01 | 79 | 1013.4 |
| 20260502123100 | 49 | 261 | 0.9 | 6.1 | 0.00 | 0.76 | 0.01 | 90 | 1012.8 |
| 20260502121533 | 48 | 252 | 2.6 | 5.2 | 0.00 | 0.76 | 0.01 | 90 | 1012.7 |
| 20260502114527 | 47 | 259 | 0.9 | 5.2 | 0.01 | 0.76 | 0.01 | 94 | 1012.4 |
| 20260502113029 | 46 | 44 | 0.0 | 6.1 | 0.01 | 0.76 | 0.01 | 94 | 1012.3 |
| 20260502111519 | 46 | 226 | 0.0 | 5.2 | 0.01 | 0.76 | 0.01 | 94 | 1012.2 |
| 20260502110019 | 45 | 235 | 0.9 | 3.5 | 0.00 | 0.76 | 0.00 | 95 | 1012.0 |
| 20260502104518 | 44 | 243 | 1.7 | 4.3 | 0.00 | 0.76 | 0.00 | 95 | 1012.0 |
| 20260502103013 | 43 | 279 | 0.9 | 3.5 | 0.00 | 0.76 | 0.00 | 95 | 1011.8 |
| 20260502101512 | 42 | 267 | 0.9 | 4.3 | 0.00 | 0.76 | 0.00 | 96 | 1011.6 |
| 20260502091500 | 39 | 252 | 0.0 | 1.7 | 0.00 | 0.76 | 0.00 | 96 | 1010.5 |
| 20260502090104 | 39 | 257 | 0.0 | 1.7 | 0.00 | 0.76 | 0.00 | 96 | 1010.4 |
| 20260502080107 | 40 | 263 | 0.0 | 0.9 | 0.00 | 0.80 | 0.00 | 96 | 1009.7 |
| 20260502070050 | 42 | 267 | 0.0 | 1.7 | 0.00 | 0.88 | 0.00 | 96 | 1009.4 |
| 20260502064547 | 42 | 269 | 0.0 | 2.6 | 0.00 | 0.89 | 0.00 | 96 | 1009.4 |
| 20260502063035 | 42 | 254 | 0.0 | 2.6 | 0.00 | 0.89 | 0.00 | 96 | 1009.0 |
| 20260502061534 | 43 | 257 | 0.0 | 3.5 | 0.00 | 0.89 | 0.00 | 96 | 1009.0 |
| 20260502060032 | 44 | 257 | 0.0 | 2.6 | 0.00 | 0.89 | 0.00 | 96 | 1008.8 |
| 20260502054533 | 44 | 270 | 0.9 | 2.6 | 0.00 | 0.89 | 0.00 | 96 | 1008.7 |
| 20260502053026 | 44 | 271 | 1.7 | 3.5 | 0.00 | 0.89 | 0.00 | 97 | 1008.6 |
| 20260502051529 | 44 | 262 | 0.9 | 4.3 | 0.00 | 0.89 | 0.00 | 97 | 1008.5 |
| 20260502050034 | 45 | 288 | 0.9 | 4.3 | 0.00 | 0.89 | 0.00 | 97 | 1008.3 |
| 20260502044521 | 45 | 258 | 0.0 | 3.5 | 0.00 | 0.89 | 0.00 | 97 | 1008.1 |
| 20260502043018 | 45 | 259 | 0.9 | 3.5 | 0.00 | 0.89 | 0.00 | 97 | 1007.9 |
| 20260502041516 | 45 | 273 | 0.9 | 3.5 | 0.00 | 0.89 | 0.00 | 97 | 1007.8 |
| 20260502040014 | 44 | 281 | 0.9 | 0.0 | 0.00 | 0.00 | 0.00 | 97 | 1007.7 |
| 20260502034512 | 44 | 345 | 0.9 | 4.3 | 0.00 | 0.89 | 0.00 | 97 | 1007.6 |
| 20260502033009 | 45 | 268 | 0.0 | 1.7 | 0.00 | 0.89 | 0.00 | 97 | 1007.5 |
| 20260502031508 | 45 | 281 | 0.9 | 3.5 | 0.00 | 0.89 | 0.00 | 97 | 1007.5 |
| 20260502030005 | 45 | 266 | 0.9 | 1.7 | 0.00 | 0.89 | 0.00 | 97 | 1007.3 |
| 20260502024504 | 44 | 274 | 0.0 | 1.7 | 0.00 | 0.89 | 0.89 | 97 | 1007.4 |
| 20260502023006 | 41 | 141 | 0.0 | 0.0 | 0.00 | 0.89 | 0.89 | 97 | 1007.4 |
| 20260502021503 | 40 | 141 | 0.0 | 0.9 | 0.00 | 0.89 | 0.89 | 96 | 1007.2 |
| 20260502020002 | 40 | 139 | 0.0 | 0.0 | 0.00 | 0.89 | 0.89 | 96 | 1007.1 |
| 20260502014503 | 40 | 139 | 0.0 | 0.9 | 0.00 | 0.89 | 0.89 | 96 | 1006.9 |
| 20260502013003 | 40 | 32 | 0.0 | 0.9 | 0.00 | 0.89 | 0.89 | 96 | 1006.9 |
| 20260502011502 | 40 | 32 | 0.0 | 0.0 | 0.01 | 0.89 | 0.89 | 96 | 1006.7 |
| 20260502010100 | 41 | 32 | 0.0 | 0.9 | 0.01 | 0.89 | 0.89 | 96 | 1006.6 |
| 20260502010003 | 41 | 32 | 0.0 | 0.9 | 0.01 | 0.89 | 0.89 | 96 | 1006.6 |
| 20260502004603 | 41 | 32 | 0.0 | 0.9 | 0.01 | 0.89 | 0.89 | 96 | 1006.5 |
| 20260502003200 | 40 | 32 | 0.0 | 0.9 | 0.01 | 0.89 | 0.89 | 96 | 1006.3 |
| 20260502001601 | 41 | 351 | 0.0 | 0.9 | 0.00 | 0.88 | 0.88 | 96 | 1006.0 |
| 20260502000107 | 41 | 351 | 0.0 | 0.0 | 0.00 | 0.88 | 0.88 | 96 | 1005.8 |
| 20260501234601 | 41 | 350 | 0.0 | 0.0 | 0.00 | 0.88 | 0.88 | 96 | 1005.5 |
| 20260501233102 | 42 | 350 | 0.0 | 0.9 | 0.00 | 0.88 | 0.88 | 96 | 1005.1 |
| 20260501231658 | 41 | 87 | 0.0 | 0.9 | 0.00 | 0.88 | 0.88 | 96 | 1005.1 |
| 20260501224555 | 41 | 87 | 0.0 | 0.0 | 0.00 | 0.88 | 0.88 | 96 | 1004.7 |
| 20260501223055 | 42 | 87 | 0.0 | 0.0 | 0.00 | 0.88 | 0.88 | 96 | 1004.5 |
| 20260501221559 | 42 | 87 | 0.0 | 0.9 | 0.00 | 0.88 | 0.88 | 96 | 1004.4 |
| 20260501214555 | 42 | 87 | 0.0 | 0.9 | 0.01 | 0.88 | 0.88 | 96 | 1004.2 |
| 20260501213059 | 43 | 87 | 0.0 | 0.9 | 0.01 | 0.88 | 0.88 | 96 | 1004.2 |
| 20260501211556 | 44 | 87 | 0.0 | 0.9 | 0.02 | 0.88 | 0.88 | 96 | 1004.1 |
| 20260501210053 | 44 | 35 | 0.0 | 1.7 | 0.02 | 0.88 | 0.88 | 96 | 1004.0 |
| 20260501204552 | 44 | 134 | 0.0 | 0.9 | 0.02 | 0.87 | 0.87 | 96 | 1003.9 |